Location: Sternwarte auf dem Internationalen Platz Vogelsang IP
(50.5721°N, 6.4398°E)
Time: 10:58:23
(UTC+01:00)

ACS3 Solar Sail - Pass Details

Date: 14 November 2025
Orbit: 888 x 1003 km, 97.3° (Epoch: 07 December)

Event Time Altitude Azimuth Distance (km) Brightness Sun altitude
Rises 04:39:53 0° 9° (N) 3,545 4.9 -29.6°
Reaches altitude 10° 04:42:19 10° 6° (N) 2,613 4.2 -29.2°
Enters shadow 04:45:38 34° 350° (N) 1,480 2.6 -28.7°
